Flag for Kazakhstan Weather past 2 weeks in Almaty, Kazakhstan

Now
61 °F

Mostly cloudy.


Feels Like: 61 °F
Forecast: 51 / 67 °F
Wind: 8 mph from Southwest

Location: Almaty Airport

Current Time: Sep 5, 2015 at 2:02:28 AM

Latest Report: Sep 5, 2015 at 1:30 AM


Visibility: N/A

Pressure: 30.15 "Hg (27.46 "Hg at 790m altitude)

Humidity: 42%

Dew point: 37 °F

Location of AlmatyLocation

Historic Weather in Almaty — Graph

°F

Almaty temperature yesterday

Maximum temperature yesterday: 75 °F (at 3:00 PM)
Minimum temperature yesterday: 48 °F (at 7:00 AM)
Average temperature yesterday: 63 °F

Past Weeks' High & Low Weather Summary

 TemperatureHumidityPressure
High97 °F (Aug 21, 3:00 PM)94% (Aug 27, 6:30 AM)30.15 "Hg (Aug 27, 6:30 AM)
Low48 °F (Sep 4, 7:00 AM)9% (Aug 21, 3:30 PM)29.62 "Hg (Aug 21, 6:30 PM)
Average67 °F47%29.95 "Hg
* Reported Aug 21 1:00 AM — Sep 5 1:00 AM, Almaty, Weather by CustomWeather, © 2015

Note: Actual official high and low records may vary slightly from our data, if they occured in-between our weather recording intervals... More about our weather records

Advertising

Almaty weather history for previous 24 hours

 ConditionsComfort  
Time TempWeatherWind HumidityBarometerVisibility
1:00 AM
Sat, Sep 5
61 °FMostly cloudy.10 mph45%30.15 "HgN/A
12:30 AM61 °FMostly cloudy.8 mph45%30.15 "HgN/A
12:00 AM61 °FPartly cloudy.8 mph45%30.12 "HgN/A
11:30 PM
Fri, Sep 4
63 °FPartly cloudy.10 mph39%30.12 "HgN/A
11:00 PM63 °FPartly cloudy.10 mph39%30.12 "HgN/A
10:30 PM61 °FPartly cloudy.8 mph45%30.12 "HgN/A
10:00 PM61 °FPassing clouds.8 mph48%30.12 "HgN/A
9:30 PM61 °FPassing clouds.3 mph52%30.12 "HgN/A
9:00 PM61 °FPassing clouds.6 mph52%30.12 "HgN/A
8:30 PM63 °FPassing clouds.3 mph49%30.12 "HgN/A
8:00 PM63 °FPassing clouds.3 mph49%30.09 "HgN/A
7:30 PM64 °FPassing clouds.6 mph43%30.09 "HgN/A
7:00 PM70 °FScattered clouds.6 mph31%30.09 "HgN/A
6:30 PM72 °FBroken clouds.6 mph29%30.09 "HgN/A
6:00 PM73 °FBroken clouds.8 mph25%30.09 "HgN/A
5:30 PM72 °FBroken clouds.6 mph25%30.09 "HgN/A
5:00 PM75 °FBroken clouds.6 mph22%30.09 "HgN/A
4:30 PM75 °FBroken clouds.6 mph22%30.09 "HgN/A
4:00 PM73 °FPartly sunny.8 mph20%30.09 "HgN/A
3:30 PM72 °FPartly sunny.6 mph22%30.12 "HgN/A
3:00 PM75 °FPartly sunny.3 mph19%30.09 "HgN/A
2:30 PM73 °FBroken clouds.6 mph20%30.09 "HgN/A
2:00 PM73 °FBroken clouds.8 mph20%30.12 "HgN/A
1:30 PM73 °FBroken clouds.6 mph19%30.12 "HgN/A
1:00 PM73 °FBroken clouds.6 mph20%30.12 "HgN/A
12:30 PM73 °FBroken clouds.6 mph19%30.12 "HgN/A
12:00 PM73 °FBroken clouds.10 mph20%30.12 "HgN/A
11:30 AM72 °FScattered clouds.8 mph20%30.12 "HgN/A
11:00 AM72 °FBroken clouds.6 mph22%30.15 "HgN/A
10:30 AM70 °FBroken clouds.6 mph25%30.15 "HgN/A
10:00 AM68 °FBroken clouds.6 mph40%30.15 "HgN/A
9:30 AM64 °FBroken clouds.6 mph49%30.15 "HgN/A
9:00 AM68 °FBroken clouds.No wind35%30.15 "HgN/A
8:30 AM61 °FBroken clouds.No wind45%30.15 "HgN/A
8:00 AM57 °FBroken clouds.1 mph51%30.15 "HgN/A
7:30 AM52 °FBroken clouds.1 mph62%30.15 "HgN/A
7:00 AM48 °FBroken clouds.3 mph71%30.15 "HgN/A
6:30 AM52 °FPartly sunny.6 mph58%30.12 "HgN/A
6:00 AM52 °FPassing clouds.6 mph58%30.12 "HgN/A
5:30 AM52 °FPassing clouds.6 mph58%30.12 "HgN/A
5:00 AM52 °FPassing clouds.6 mph58%30.12 "HgN/A
4:30 AM54 °FPassing clouds.6 mph54%30.12 "HgN/A
3:30 AM54 °FPassing clouds.6 mph63%30.12 "HgN/A
3:00 AM54 °FPassing clouds.3 mph63%30.12 "HgN/A
2:30 AM55 °FPassing clouds.6 mph59%30.15 "HgN/A
2:00 AM55 °FPassing clouds.6 mph59%30.15 "HgN/A
Weather by CustomWeather, © 2015

See weather overviewHow to use our weather pages